| time (UTC) | temp C | wind direction | speed KPH | gust KPH | rain 1hr cm | rain 24hr cm | rain mn cm | humidity % | barometer mb |
| 20260507185831 | 15 | 260 | 1.6 | 6.4 | 0.00 | 0.00 | 0.00 | 76 | 1019.6 |
| 20260507185326 | 15 | 105 | 3.2 | 6.4 | 0.00 | 0.00 | 0.00 | 76 | 1019.7 |
| 20260507184823 | 15 | 39 | 3.2 | 6.4 | 0.00 | 0.00 | 0.00 | 75 | 1019.7 |
| 20260507184322 | 15 | 344 | 3.2 | 6.4 | 0.00 | 0.00 | 0.00 | 78 | 1019.7 |
| 20260507183820 | 15 | 292 | 1.6 | 6.4 | 0.00 | 0.00 | 0.00 | 79 | 1019.7 |
| 20260507183318 | 15 | 265 | 1.6 | 4.8 | 0.00 | 0.00 | 0.00 | 81 | 1019.7 |
| 20260507182817 | 15 | 182 | 3.2 | 6.4 | 0.00 | 0.00 | 0.00 | 81 | 1019.7 |
| 20260507182313 | 14 | 337 | 1.6 | 6.4 | 0.00 | 0.00 | 0.00 | 81 | 1019.7 |
| 20260507181812 | 14 | 308 | 1.6 | 6.4 | 0.00 | 0.00 | 0.00 | 79 | 1019.7 |
| 20260507181251 | 15 | 287 | 1.6 | 4.8 | 0.00 | 0.00 | 0.00 | 81 | 1019.8 |
| 20260507181021 | 14 | 203 | 1.6 | 4.8 | 0.00 | 0.00 | 0.00 | 82 | 1019.8 |
| 20260507180236 | 14 | 235 | 3.2 | 6.4 | 0.00 | 0.00 | 0.00 | 82 | 1019.8 |
| 20260507175737 | 14 | 300 | 3.2 | 6.4 | 0.00 | 0.00 | 0.00 | 83 | 1019.8 |
| 20260507175235 | 13 | 239 | 1.6 | 6.4 | 0.00 | 0.00 | 0.00 | 84 | 1019.9 |
| 20260507174733 | 14 | 321 | 1.6 | 6.4 | 0.00 | 0.00 | 0.00 | 82 | 1019.7 |
| 20260507174228 | 13 | 353 | 1.6 | 4.8 | 0.00 | 0.00 | 0.00 | 86 | 1019.8 |
| 20260507173724 | 13 | 345 | 1.6 | 4.8 | 0.00 | 0.00 | 0.00 | 83 | 1019.9 |
| 20260507173222 | 13 | 336 | 0.0 | 3.2 | 0.00 | 0.00 | 0.00 | 85 | 1019.8 |
| 20260507172721 | 13 | 345 | 0.0 | 3.2 | 0.00 | 0.00 | 0.00 | 85 | 1019.9 |
| 20260507172221 | 13 | 345 | 1.6 | 4.8 | 0.00 | 0.00 | 0.00 | 84 | 1020.0 |
| 20260507171712 | 13 | 18 | 1.6 | 4.8 | 0.00 | 0.00 | 0.00 | 84 | 1020.0 |
| 20260507171204 | 13 | 0 | 1.6 | 3.2 | 0.00 | 0.00 | 0.00 | 87 | 1020.0 |
| 20260507170701 | 13 | 335 | 1.6 | 4.8 | 0.00 | 0.00 | 0.00 | 87 | 1020.0 |
| 20260507170200 | 13 | 335 | 3.2 | 6.4 | 0.00 | 0.00 | 0.00 | 86 | 1020.0 |
| 20260507165658 | 13 | 345 | 1.6 | 6.4 | 0.00 | 0.00 | 0.00 | 88 | 1020.0 |
| 20260507165159 | 12 | 37 | 1.6 | 4.8 | 0.00 | 0.00 | 0.00 | 87 | 1019.9 |
| 20260507164658 | 12 | 37 | 1.6 | 6.4 | 0.00 | 0.00 | 0.00 | 88 | 1020.0 |
| 20260507164152 | 12 | 270 | 3.2 | 6.4 | 0.00 | 0.00 | 0.00 | 87 | 1019.9 |
| 20260507163651 | 12 | 27 | 3.2 | 6.4 | 0.00 | 0.00 | 0.00 | 88 | 1019.9 |
| 20260507163148 | 12 | 343 | 3.2 | 4.8 | 0.00 | 0.00 | 0.00 | 89 | 1020.0 |
| 20260507162649 | 12 | 316 | 3.2 | 6.4 | 0.00 | 0.00 | 0.00 | 90 | 1020.1 |
| 20260507162146 | 12 | 4 | 1.6 | 6.4 | 0.00 | 0.00 | 0.00 | 90 | 1020.0 |
| 20260507161641 | 12 | 256 | 1.6 | 4.8 | 0.00 | 0.00 | 0.00 | 90 | 1020.0 |
| 20260507161142 | 12 | 342 | 1.6 | 4.8 | 0.00 | 0.00 | 0.00 | 90 | 1019.9 |
| 20260507160631 | 12 | 343 | 1.6 | 4.8 | 0.00 | 0.00 | 0.00 | 91 | 1020.0 |
| 20260507160113 | 12 | 343 | 3.2 | 4.8 | 0.00 | 0.00 | 0.00 | 91 | 1020.0 |
| 20260507155603 | 11 | 48 | 3.2 | 4.8 | 0.00 | 0.00 | 0.00 | 90 | 1020.1 |
| 20260507155105 | 11 | 332 | 1.6 | 4.8 | 0.00 | 0.00 | 0.00 | 91 | 1020.1 |
| 20260507154604 | 11 | 332 | 1.6 | 4.8 | 0.00 | 0.00 | 0.00 | 91 | 1020.2 |
| 20260507154100 | 11 | 350 | 3.2 | 4.8 | 0.00 | 0.00 | 0.00 | 92 | 1020.2 |
| 20260507153559 | 11 | 333 | 3.2 | 6.4 | 0.00 | 0.00 | 0.00 | 93 | 1020.2 |
| 20260507153057 | 11 | 341 | 4.8 | 6.4 | 0.00 | 0.00 | 0.00 | 92 | 1020.3 |
| 20260507152820 | 11 | 7 | 3.2 | 6.4 | 0.00 | 0.00 | 0.00 | 92 | 1020.3 |
| 20260507152054 | 11 | 304 | 1.6 | 6.4 | 0.00 | 0.00 | 0.00 | 93 | 1020.3 |
| 20260507151542 | 11 | 315 | 1.6 | 4.8 | 0.00 | 0.00 | 0.00 | 93 | 1020.2 |
| 20260507151045 | 11 | 315 | 1.6 | 4.8 | 0.00 | 0.00 | 0.00 | 93 | 1020.1 |
| 20260507150534 | 11 | 293 | 0.0 | 1.6 | 0.00 | 0.00 | 0.00 | 94 | 1020.2 |
| 20260507150025 | 11 | 229 | 0.0 | 0.0 | 0.00 | 0.00 | 0.00 | 94 | 1020.1 |
| 20260507145523 | 11 | 229 | 0.0 | 0.0 | 0.00 | 0.00 | 0.00 | 94 | 1020.1 |
| 20260507145026 | 11 | 229 | 0.0 | 0.0 | 0.00 | 0.00 | 0.00 | 94 | 1020.1 |
| 20260507144518 | 11 | 229 | 0.0 | 0.0 | 0.00 | 0.00 | 0.00 | 94 | 1020.1 |
| 20260507144020 | 11 | 229 | 0.0 | 0.0 | 0.00 | 0.00 | 0.00 | 94 | 1020.1 |
| 20260507143509 | 11 | 229 | 0.0 | 0.0 | 0.00 | 0.00 | 0.00 | 94 | 1020.1 |
| 20260507143008 | 11 | 229 | 0.0 | 0.0 | 0.00 | 0.00 | 0.00 | 95 | 1020.1 |
| 20260507142459 | 11 | 229 | 0.0 | 0.0 | 0.00 | 0.00 | 0.00 | 95 | 1020.0 |
| 20260507141942 | 10 | 229 | 0.0 | 0.0 | 0.00 | 0.00 | 0.00 | 95 | 1019.9 |
| 20260507141422 | 10 | 229 | 0.0 | 0.0 | 0.00 | 0.00 | 0.00 | 95 | 1020.0 |
| 20260507140921 | 10 | 229 | 0.0 | 0.0 | 0.00 | 0.00 | 0.00 | 95 | 1020.0 |
| 20260507140423 | 10 | 229 | 0.0 | 0.0 | 0.00 | 0.00 | 0.00 | 95 | 1019.9 |
| 20260507135921 | 10 | 229 | 0.0 | 0.0 | 0.00 | 0.00 | 0.00 | 95 | 1019.9 |
| 20260507135622 | 10 | 229 | 0.0 | 0.0 | 0.00 | 0.00 | 0.00 | 95 | 1019.9 |
| 20260507134906 | 10 | 229 | 0.0 | 0.0 | 0.00 | 0.00 | 0.00 | 95 | 1019.9 |
| 20260507134351 | 10 | 229 | 0.0 | 0.0 | 0.00 | 0.00 | 0.00 | 95 | 1019.9 |
| 20260507134058 | 10 | 229 | 0.0 | 0.0 | 0.00 | 0.00 | 0.00 | 95 | 1019.8 |
| 20260507133333 | 10 | 227 | 0.0 | 0.0 | 0.00 | 0.00 | 0.00 | 95 | 1019.8 |
| 20260507132823 | 10 | 227 | 0.0 | 0.0 | 0.00 | 0.00 | 0.00 | 95 | 1019.8 |
| 20260507132324 | 10 | 229 | 0.0 | 0.0 | 0.00 | 0.00 | 0.00 | 95 | 1019.9 |
| 20260507132044 | 10 | 229 | 0.0 | 0.0 | 0.00 | 0.00 | 0.00 | 95 | 1019.8 |
| 20260507131314 | 10 | 229 | 0.0 | 0.0 | 0.00 | 0.00 | 0.00 | 95 | 1019.9 |
| 20260507130800 | 10 | 229 | 0.0 | 0.0 | 0.00 | 0.00 | 0.00 | 95 | 1019.9 |
| 20260507130510 | 10 | 229 | 0.0 | 0.0 | 0.00 | 0.00 | 0.00 | 95 | 1019.9 |
| 20260507125730 | 10 | 229 | 0.0 | 0.0 | 0.00 | 0.00 | 0.00 | 95 | 1020.0 |
| 20260507125224 | 10 | 229 | 0.0 | 0.0 | 0.00 | 0.00 | 0.00 | 95 | 1020.0 |
| 20260507124716 | 10 | 229 | 0.0 | 0.0 | 0.00 | 0.00 | 0.00 | 95 | 1020.0 |
| 20260507124202 | 10 | 229 | 0.0 | 0.0 | 0.00 | 0.00 | 0.00 | 95 | 1020.1 |
| 20260507123652 | 10 | 229 | 0.0 | 0.0 | 0.00 | 0.00 | 0.00 | 95 | 1020.0 |
| 20260507123357 | 10 | 229 | 0.0 | 0.0 | 0.00 | 0.00 | 0.00 | 95 | 1020.0 |
| 20260507122628 | 10 | 229 | 0.0 | 0.0 | 0.00 | 0.00 | 0.00 | 95 | 1020.1 |
| 20260507122118 | 10 | 229 | 0.0 | 0.0 | 0.00 | 0.00 | 0.00 | 95 | 1020.1 |
| 20260507121605 | 10 | 229 | 0.0 | 3.2 | 0.00 | 0.00 | 0.00 | 95 | 1020.2 |
| 20260507121051 | 10 | 229 | 1.6 | 3.2 | 0.00 | 0.00 | 0.00 | 95 | 1020.1 |
| 20260507120546 | 10 | 229 | 1.6 | 3.2 | 0.00 | 0.00 | 0.00 | 94 | 1020.1 |
| 20260507120044 | 10 | 229 | 0.0 | 3.2 | 0.00 | 0.00 | 0.00 | 94 | 1020.2 |
| 20260507115543 | 10 | 229 | 0.0 | 0.0 | 0.00 | 0.00 | 0.00 | 94 | 1020.3 |
| 20260507115031 | 10 | 229 | 0.0 | 0.0 | 0.00 | 0.00 | 0.00 | 94 | 1020.3 |
| 20260507114532 | 10 | 229 | 0.0 | 0.0 | 0.00 | 0.00 | 0.00 | 94 | 1020.4 |
| 20260507114019 | 10 | 229 | 0.0 | 0.0 | 0.00 | 0.00 | 0.00 | 94 | 1020.4 |
| 20260507113518 | 10 | 229 | 0.0 | 0.0 | 0.00 | 0.00 | 0.00 | 94 | 1020.4 |
| 20260507113234 | 10 | 229 | 0.0 | 0.0 | 0.00 | 0.00 | 0.00 | 93 | 1020.4 |
| 20260507112509 | 10 | 229 | 0.0 | 1.6 | 0.00 | 0.00 | 0.00 | 93 | 1020.4 |
| 20260507112009 | 10 | 229 | 0.0 | 3.2 | 0.00 | 0.00 | 0.00 | 92 | 1020.4 |
| 20260507111510 | 10 | 229 | 0.0 | 3.2 | 0.00 | 0.00 | 0.00 | 92 | 1020.4 |
| 20260507111220 | 10 | 229 | 0.0 | 3.2 | 0.00 | 0.00 | 0.00 | 91 | 1020.5 |
| 20260507110448 | 10 | 229 | 1.6 | 3.2 | 0.00 | 0.00 | 0.00 | 91 | 1020.4 |
| 20260507105945 | 10 | 229 | 1.6 | 3.2 | 0.00 | 0.00 | 0.00 | 91 | 1020.4 |
| 20260507105446 | 10 | 229 | 1.6 | 3.2 | 0.00 | 0.00 | 0.00 | 90 | 1020.5 |
| 20260507104946 | 10 | 229 | 1.6 | 4.8 | 0.00 | 0.00 | 0.00 | 90 | 1020.5 |
| 20260507104439 | 10 | 229 | 3.2 | 6.4 | 0.00 | 0.00 | 0.00 | 90 | 1020.5 |
| 20260507104159 | 10 | 229 | 3.2 | 6.4 | 0.00 | 0.00 | 0.00 | 90 | 1020.6 |
| 20260507103436 | 11 | 217 | 3.2 | 6.4 | 0.00 | 0.00 | 0.00 | 89 | 1020.6 |
| 20260507102927 | 11 | 227 | 1.6 | 6.4 | 0.00 | 0.00 | 0.00 | 89 | 1020.6 |
| 20260507102423 | 11 | 230 | 0.0 | 4.8 | 0.00 | 0.00 | 0.00 | 88 | 1020.6 |
| 20260507101923 | 11 | 202 | 0.0 | 0.0 | 0.00 | 0.00 | 0.00 | 88 | 1020.7 |
| 20260507101415 | 11 | 202 | 0.0 | 0.0 | 0.00 | 0.00 | 0.00 | 87 | 1020.6 |
| 20260507101131 | 11 | 202 | 0.0 | 0.0 | 0.00 | 0.00 | 0.00 | 87 | 1020.7 |
| 20260507100359 | 11 | 202 | 0.0 | 0.0 | 0.00 | 0.00 | 0.00 | 87 | 1020.7 |
| 20260507095847 | 11 | 202 | 0.0 | 0.0 | 0.00 | 0.00 | 0.00 | 86 | 1020.8 |
| 20260507095333 | 11 | 202 | 0.0 | 0.0 | 0.00 | 0.00 | 0.00 | 86 | 1020.7 |
| 20260507095041 | 11 | 176 | 0.0 | 0.0 | 0.00 | 0.00 | 0.00 | 87 | 1020.7 |
| 20260507094317 | 11 | 175 | 0.0 | 0.0 | 0.00 | 0.00 | 0.00 | 86 | 1020.7 |
| 20260507093817 | 11 | 175 | 0.0 | 0.0 | 0.00 | 0.00 | 0.00 | 87 | 1020.8 |
| 20260507093313 | 11 | 253 | 0.0 | 0.0 | 0.00 | 0.00 | 0.00 | 86 | 1020.8 |
| 20260507093032 | 11 | 253 | 0.0 | 0.0 | 0.00 | 0.00 | 0.00 | 86 | 1020.9 |
| 20260507092307 | 11 | 253 | 0.0 | 0.0 | 0.00 | 0.00 | 0.00 | 85 | 1021.0 |
| 20260507092026 | 11 | 253 | 0.0 | 0.0 | 0.00 | 0.00 | 0.00 | 85 | 1020.9 |
| 20260507091256 | 11 | 253 | 0.0 | 0.0 | 0.00 | 0.00 | 0.00 | 86 | 1021.1 |
| 20260507090750 | 11 | 253 | 0.0 | 0.0 | 0.00 | 0.00 | 0.00 | 86 | 1021.1 |
| 20260507090243 | 11 | 253 | 0.0 | 0.0 | 0.00 | 0.00 | 0.00 | 85 | 1021.1 |
| 20260507085743 | 11 | 253 | 0.0 | 1.6 | 0.00 | 0.00 | 0.00 | 86 | 1021.2 |
| 20260507085238 | 11 | 253 | 0.0 | 3.2 | 0.00 | 0.00 | 0.00 | 86 | 1021.2 |
| 20260507084726 | 11 | 253 | 1.6 | 3.2 | 0.00 | 0.00 | 0.00 | 86 | 1021.1 |
| 20260507084223 | 11 | 253 | 1.6 | 4.8 | 0.00 | 0.00 | 0.00 | 86 | 1021.2 |
| 20260507083720 | 11 | 253 | 3.2 | 4.8 | 0.00 | 0.00 | 0.00 | 86 | 1021.3 |
| 20260507083220 | 11 | 253 | 3.2 | 4.8 | 0.00 | 0.00 | 0.00 | 86 | 1021.3 |
| 20260507082717 | 11 | 222 | 3.2 | 6.4 | 0.00 | 0.00 | 0.00 | 86 | 1021.2 |
| 20260507082158 | 11 | 258 | 3.2 | 8.0 | 0.00 | 0.00 | 0.00 | 87 | 1021.3 |
| 20260507081920 | 11 | 270 | 3.2 | 8.0 | 0.00 | 0.00 | 0.00 | 86 | 1021.4 |
| 20260507081157 | 11 | 265 | 3.2 | 8.0 | 0.00 | 0.00 | 0.00 | 86 | 1021.3 |
| 20260507080656 | 11 | 242 | 4.8 | 8.0 | 0.00 | 0.00 | 0.00 | 86 | 1021.3 |
| 20260507080159 | 11 | 236 | 4.8 | 8.0 | 0.00 | 0.00 | 0.00 | 86 | 1021.3 |
| 20260507075651 | 11 | 265 | 3.2 | 8.0 | 0.00 | 0.00 | 0.00 | 86 | 1021.3 |
| 20260507075148 | 11 | 242 | 3.2 | 8.0 | 0.00 | 0.00 | 0.00 | 87 | 1021.3 |
| 20260507074643 | 11 | 227 | 3.2 | 6.4 | 0.00 | 0.00 | 0.00 | 87 | 1021.3 |
| 20260507074133 | 11 | 228 | 1.6 | 4.8 | 0.00 | 0.00 | 0.00 | 87 | 1021.4 |
| 20260507073624 | 11 | 228 | 1.6 | 4.8 | 0.00 | 0.00 | 0.00 | 87 | 1021.3 |
| 20260507073109 | 11 | 228 | 1.6 | 6.4 | 0.00 | 0.00 | 0.00 | 88 | 1021.3 |
| 20260507072822 | 11 | 228 | 3.2 | 6.4 | 0.00 | 0.00 | 0.00 | 88 | 1021.3 |
| 20260507072101 | 11 | 225 | 3.2 | 6.4 | 0.00 | 0.00 | 0.00 | 87 | 1021.3 |
| 20260507071559 | 11 | 222 | 4.8 | 8.0 | 0.00 | 0.00 | 0.00 | 87 | 1021.3 |
| 20260507071316 | 11 | 237 | 4.8 | 8.0 | 0.00 | 0.00 | 0.00 | 88 | 1021.3 |
| 20260507070549 | 11 | 233 | 4.8 | 8.0 | 0.00 | 0.00 | 0.00 | 87 | 1021.3 |
| 20260507070044 | 11 | 223 | 4.8 | 8.0 | 0.00 | 0.00 | 0.00 | 88 | 1021.3 |
| 20260507065543 | 11 | 241 | 4.8 | 8.0 | 0.00 | 0.00 | 0.00 | 88 | 1021.2 |
| 20260507065042 | 11 | 225 | 4.8 | 8.0 | 0.00 | 0.00 | 0.00 | 88 | 1021.2 |
| 20260507064539 | 11 | 235 | 3.2 | 6.4 | 0.00 | 0.00 | 0.00 | 89 | 1021.4 |
| 20260507064039 | 10 | 223 | 3.2 | 4.8 | 0.00 | 0.00 | 0.00 | 89 | 1021.3 |
| 20260507063544 | 10 | 230 | 3.2 | 6.4 | 0.00 | 0.00 | 0.00 | 89 | 1021.3 |
| 20260507063040 | 10 | 204 | 3.2 | 6.4 | 0.00 | 0.00 | 0.00 | 89 | 1021.3 |
| 20260507062538 | 10 | 226 | 3.2 | 6.4 | 0.00 | 0.00 | 0.00 | 89 | 1021.3 |
| 20260507062036 | 10 | 211 | 3.2 | 8.0 | 0.00 | 0.00 | 0.00 | 89 | 1021.3 |
| 20260507061535 | 10 | 206 | 4.8 | 8.0 | 0.00 | 0.00 | 0.00 | 88 | 1021.3 |
| 20260507061041 | 10 | 209 | 4.8 | 9.7 | 0.00 | 0.00 | 0.00 | 88 | 1021.2 |
| 20260507060537 | 10 | 227 | 4.8 | 9.7 | 0.00 | 0.00 | 0.00 | 88 | 1021.3 |
| 20260507060033 | 10 | 235 | 4.8 | 9.7 | 0.00 | 0.00 | 0.00 | 87 | 1021.3 |
| 20260507055534 | 10 | 245 | 6.4 | 12.9 | 0.00 | 0.00 | 0.00 | 88 | 1021.2 |
| 20260507055034 | 10 | 233 | 8.0 | 12.9 | 0.00 | 0.00 | 0.00 | 87 | 1021.1 |
| 20260507054532 | 11 | 232 | 6.4 | 12.9 | 0.00 | 0.00 | 0.00 | 87 | 1021.1 |
| 20260507054032 | 11 | 231 | 6.4 | 12.9 | 0.00 | 0.00 | 0.00 | 87 | 1021.1 |
| 20260507053533 | 11 | 225 | 6.4 | 12.9 | 0.00 | 0.00 | 0.00 | 87 | 1021.0 |
| 20260507053031 | 11 | 218 | 6.4 | 12.9 | 0.00 | 0.00 | 0.00 | 87 | 1021.0 |
| 20260507052531 | 11 | 234 | 6.4 | 14.5 | 0.00 | 0.00 | 0.00 | 87 | 1020.9 |
| 20260507052255 | 11 | 226 | 8.0 | 14.5 | 0.00 | 0.00 | 0.00 | 86 | 1020.9 |
| 20260507051528 | 11 | 222 | 8.0 | 14.5 | 0.00 | 0.00 | 0.00 | 86 | 1021.0 |
| 20260507051246 | 11 | 233 | 8.0 | 14.5 | 0.00 | 0.00 | 0.00 | 86 | 1020.9 |
| 20260507050527 | 11 | 213 | 8.0 | 14.5 | 0.00 | 0.00 | 0.00 | 86 | 1021.0 |
| 20260507050027 | 11 | 225 | 8.0 | 12.9 | 0.00 | 0.00 | 0.00 | 86 | 1020.9 |
| 20260507045748 | 11 | 223 | 8.0 | 16.1 | 0.00 | 0.00 | 0.00 | 85 | 1020.9 |
| 20260507045249 | 11 | 198 | 9.7 | 16.1 | 0.00 | 0.00 | 0.00 | 85 | 1020.8 |
| 20260507044523 | 11 | 230 | 9.7 | 16.1 | 0.00 | 0.00 | 0.00 | 85 | 1020.8 |
| 20260507044023 | 11 | 208 | 8.0 | 16.1 | 0.00 | 0.00 | 0.00 | 85 | 1020.7 |
| 20260507043521 | 11 | 218 | 8.0 | 16.1 | 0.00 | 0.00 | 0.00 | 85 | 1020.7 |
| 20260507043017 | 11 | 211 | 6.4 | 14.5 | 0.00 | 0.00 | 0.00 | 84 | 1020.7 |
| 20260507042517 | 11 | 213 | 6.4 | 16.1 | 0.00 | 0.00 | 0.00 | 84 | 1020.6 |
| 20260507042018 | 12 | 211 | 6.4 | 16.1 | 0.00 | 0.00 | 0.00 | 84 | 1020.6 |
| 20260507041511 | 12 | 216 | 8.0 | 16.1 | 0.00 | 0.00 | 0.00 | 83 | 1020.5 |
| 20260507041012 | 12 | 224 | 9.7 | 16.1 | 0.00 | 0.00 | 0.00 | 83 | 1020.5 |
| 20260507040511 | 12 | 243 | 9.7 | 16.1 | 0.00 | 0.00 | 0.00 | 83 | 1020.5 |
| 20260507040002 | 12 | 243 | 8.0 | 16.1 | 0.00 | 0.00 | 0.00 | 82 | 1020.4 |
| 20260507035458 | 12 | 244 | 9.7 | 17.7 | 0.00 | 0.00 | 0.00 | 82 | 1020.4 |
| 20260507034957 | 12 | 209 | 9.7 | 17.7 | 0.00 | 0.00 | 0.00 | 81 | 1020.3 |
| 20260507034454 | 12 | 221 | 9.7 | 16.1 | 0.00 | 0.00 | 0.00 | 81 | 1020.2 |
| 20260507034222 | 13 | 203 | 9.7 | 16.1 | 0.00 | 0.00 | 0.00 | 81 | 1020.3 |
| 20260507033456 | 13 | 229 | 8.0 | 16.1 | 0.00 | 0.00 | 0.00 | 81 | 1020.2 |
| 20260507032956 | 13 | 241 | 8.0 | 14.5 | 0.00 | 0.00 | 0.00 | 80 | 1020.2 |
| 20260507032453 | 13 | 224 | 9.7 | 19.3 | 0.00 | 0.00 | 0.00 | 80 | 1020.3 |
| 20260507031953 | 13 | 229 | 11.3 | 19.3 | 0.00 | 0.00 | 0.00 | 79 | 1020.2 |
| 20260507031720 | 13 | 228 | 11.3 | 17.7 | 0.00 | 0.00 | 0.00 | 79 | 1020.1 |
| 20260507030953 | 14 | 240 | 11.3 | 17.7 | 0.00 | 0.00 | 0.00 | 78 | 1020.1 |
| 20260507030451 | 14 | 259 | 11.3 | 17.7 | 0.00 | 0.00 | 0.00 | 78 | 1020.0 |
| 20260507025951 | 14 | 223 | 11.3 | 22.5 | 0.00 | 0.00 | 0.00 | 77 | 1020.0 |
| 20260507025451 | 15 | 265 | 11.3 | 22.5 | 0.00 | 0.00 | 0.00 | 76 | 1019.8 |
| 20260507024949 | 15 | 233 | 12.9 | 22.5 | 0.00 | 0.00 | 0.00 | 76 | 1019.9 |
| 20260507024449 | 15 | 229 | 12.9 | 22.5 | 0.00 | 0.00 | 0.00 | 75 | 1019.9 |
| 20260507023948 | 15 | 232 | 11.3 | 19.3 | 0.00 | 0.00 | 0.00 | 75 | 1019.8 |
| 20260507023448 | 15 | 238 | 12.9 | 20.9 | 0.00 | 0.00 | 0.00 | 75 | 1019.9 |
| 20260507022946 | 16 | 240 | 14.5 | 20.9 | 0.00 | 0.00 | 0.00 | 74 | 1019.9 |
| 20260507022447 | 16 | 233 | 14.5 | 22.5 | 0.00 | 0.00 | 0.00 | 73 | 1019.8 |
| 20260507021945 | 16 | 258 | 16.1 | 24.1 | 0.00 | 0.00 | 0.00 | 73 | 1019.8 |
| 20260507021444 | 16 | 270 | 14.5 | 24.1 | 0.00 | 0.00 | 0.00 | 72 | 1019.8 |
| 20260507020943 | 16 | 233 | 12.9 | 20.9 | 0.00 | 0.00 | 0.00 | 72 | 1019.8 |
| 20260507020442 | 17 | 248 | 12.9 | 22.5 | 0.00 | 0.00 | 0.00 | 71 | 1019.8 |
| 20260507020215 | 17 | 247 | 9.7 | 22.5 | 0.00 | 0.00 | 0.00 | 71 | 1019.8 |
| 20260507015442 | 17 | 256 | 11.3 | 22.5 | 0.00 | 0.00 | 0.00 | 70 | 1019.7 |
| 20260507015203 | 17 | 261 | 16.1 | 24.1 | 0.00 | 0.00 | 0.00 | 70 | 1019.7 |
| 20260507014438 | 17 | 258 | 16.1 | 24.1 | 0.00 | 0.00 | 0.00 | 70 | 1019.7 |
| 20260507013938 | 17 | 252 | 14.5 | 24.1 | 0.00 | 0.00 | 0.00 | 69 | 1019.7 |
| 20260507013438 | 17 | 231 | 14.5 | 25.7 | 0.00 | 0.00 | 0.00 | 69 | 1019.7 |
| 20260507012936 | 18 | 260 | 14.5 | 25.7 | 0.00 | 0.00 | 0.00 | 68 | 1019.7 |
| 20260507012436 | 18 | 227 | 14.5 | 24.1 | 0.00 | 0.00 | 0.00 | 69 | 1019.7 |
| 20260507011937 | 18 | 260 | 14.5 | 24.1 | 0.00 | 0.00 | 0.00 | 68 | 1019.7 |
| 20260507011926 | 18 | 282 | 14.5 | 22.5 | 0.00 | 0.00 | 0.00 | 67 | 1019.7 |
| 20260507010934 | 18 | 227 | 14.5 | 24.1 | 0.00 | 0.00 | 0.00 | 67 | 1019.7 |
| 20260507010434 | 18 | 297 | 16.1 | 24.1 | 0.00 | 0.00 | 0.00 | 67 | 1019.7 |
| 20260507005935 | 19 | 260 | 16.1 | 25.7 | 0.00 | 0.00 | 0.00 | 67 | 1019.6 |
| 20260507005435 | 19 | 265 | 16.1 | 25.7 | 0.00 | 0.00 | 0.00 | 66 | 1019.6 |
| 20260507004932 | 20 | 270 | 16.1 | 24.1 | 0.00 | 0.00 | 0.00 | 66 | 1019.6 |
| 20260507004433 | 20 | 249 | 16.1 | 24.1 | 0.00 | 0.00 | 0.00 | 64 | 1019.5 |
| 20260507003931 | 20 | 243 | 16.1 | 27.4 | 0.00 | 0.00 | 0.00 | 65 | 1019.5 |
| 20260507003423 | 20 | 230 | 17.7 | 27.4 | 0.00 | 0.00 | 0.00 | 65 | 1019.4 |
| 20260507003149 | 20 | 233 | 17.7 | 25.7 | 0.00 | 0.00 | 0.00 | 65 | 1019.5 |
| 20260507002424 | 20 | 241 | 17.7 | 25.7 | 0.00 | 0.00 | 0.00 | 64 | 1019.5 |
| 20260507001920 | 20 | 203 | 17.7 | 27.4 | 0.00 | 0.00 | 0.00 | 64 | 1019.4 |
| 20260507001647 | 20 | 248 | 16.1 | 27.4 | 0.00 | 0.00 | 0.00 | 64 | 1019.5 |
| 20260507000918 | 20 | 241 | 16.1 | 27.4 | 0.00 | 0.00 | 0.00 | 65 | 1019.5 |
| 20260507000417 | 21 | 250 | 14.5 | 25.7 | 0.00 | 0.00 | 0.00 | 64 | 1019.4 |
| 20260506235916 | 21 | 249 | 16.1 | 27.4 | 0.00 | 0.00 | 0.00 | 64 | 1019.5 |
| 20260506235631 | 21 | 275 | 17.7 | 27.4 | 0.00 | 0.00 | 0.00 | 63 | 1019.3 |
| 20260506234904 | 21 | 226 | 16.1 | 25.7 | 0.00 | 0.00 | 0.00 | 63 | 1019.4 |
| 20260506234403 | 21 | 235 | 14.5 | 22.5 | 0.00 | 0.00 | 0.00 | 62 | 1019.3 |
| 20260506233902 | 21 | 258 | 14.5 | 20.9 | 0.00 | 0.00 | 0.00 | 62 | 1019.3 |
| 20260506233403 | 22 | 235 | 12.9 | 20.9 | 0.00 | 0.00 | 0.00 | 61 | 1019.4 |
| 20260506232902 | 21 | 231 | 12.9 | 20.9 | 0.00 | 0.00 | 0.00 | 61 | 1019.3 |
| 20260506232400 | 21 | 227 | 11.3 | 22.5 | 0.00 | 0.00 | 0.00 | 61 | 1019.3 |
| 20260506231859 | 21 | 219 | 12.9 | 22.5 | 0.00 | 0.00 | 0.00 | 60 | 1019.3 |
| 20260506231627 | 21 | 230 | 12.9 | 22.5 | 0.00 | 0.00 | 0.00 | 61 | 1019.3 |
| 20260506230857 | 21 | 246 | 12.9 | 22.5 | 0.00 | 0.00 | 0.00 | 62 | 1019.5 |
| 20260506230358 | 21 | 201 | 12.9 | 20.9 | 0.00 | 0.00 | 0.00 | 61 | 1019.3 |
| 20260506225858 | 21 | 218 | 14.5 | 20.9 | 0.00 | 0.00 | 0.00 | 62 | 1019.3 |
| 20260506225623 | 21 | 265 | 14.5 | 24.1 | 0.00 | 0.00 | 0.00 | 62 | 1019.3 |
| 20260506224859 | 21 | 226 | 14.5 | 24.1 | 0.00 | 0.00 | 0.00 | 61 | 1019.4 |
| 20260506224354 | 21 | 235 | 14.5 | 22.5 | 0.00 | 0.00 | 0.00 | 63 | 1019.4 |
| 20260506223854 | 21 | 231 | 14.5 | 22.5 | 0.00 | 0.00 | 0.00 | 63 | 1019.6 |
| 20260506223352 | 21 | 241 | 12.9 | 22.5 | 0.00 | 0.00 | 0.00 | 61 | 1019.7 |
| 20260506222852 | 21 | 224 | 12.9 | 24.1 | 0.00 | 0.00 | 0.00 | 63 | 1019.7 |
| 20260506222353 | 21 | 235 | 14.5 | 24.1 | 0.00 | 0.00 | 0.00 | 61 | 1019.7 |
| 20260506221851 | 21 | 222 | 14.5 | 20.9 | 0.00 | 0.00 | 0.00 | 62 | 1019.8 |
| 20260506221347 | 21 | 239 | 12.9 | 20.9 | 0.00 | 0.00 | 0.00 | 64 | 1019.8 |
| 20260506220848 | 21 | 290 | 11.3 | 19.3 | 0.00 | 0.00 | 0.00 | 62 | 1019.8 |
| 20260506220607 | 21 | 242 | 11.3 | 19.3 | 0.00 | 0.00 | 0.00 | 62 | 1019.9 |
| 20260506215847 | 21 | 299 | 12.9 | 22.5 | 0.00 | 0.00 | 0.00 | 65 | 1019.9 |
| 20260506215609 | 21 | 224 | 14.5 | 22.5 | 0.00 | 0.00 | 0.00 | 63 | 1019.9 |
| 20260506214848 | 21 | 232 | 12.9 | 20.9 | 0.00 | 0.00 | 0.00 | 65 | 1019.9 |
| 20260506214349 | 21 | 236 | 11.3 | 20.9 | 0.00 | 0.00 | 0.00 | 63 | 1020.0 |
| 20260506213846 | 21 | 230 | 9.7 | 20.9 | 0.00 | 0.00 | 0.00 | 65 | 1020.1 |
| 20260506213608 | 21 | 243 | 12.9 | 22.5 | 0.00 | 0.00 | 0.00 | 66 | 1020.1 |
| 20260506212848 | 21 | 225 | 12.9 | 22.5 | 0.00 | 0.00 | 0.00 | 65 | 1020.2 |
| 20260506212344 | 21 | 261 | 11.3 | 22.5 | 0.00 | 0.00 | 0.00 | 66 | 1020.3 |
| 20260506211842 | 21 | 246 | 9.7 | 19.3 | 0.00 | 0.00 | 0.00 | 68 | 1020.4 |
| 20260506211345 | 20 | 243 | 12.9 | 20.9 | 0.00 | 0.00 | 0.00 | 67 | 1020.3 |
| 20260506210842 | 20 | 252 | 12.9 | 20.9 | 0.00 | 0.00 | 0.00 | 69 | 1020.3 |
| 20260506210341 | 20 | 215 | 11.3 | 19.3 | 0.00 | 0.00 | 0.00 | 67 | 1020.2 |
| 20260506205840 | 20 | 239 | 11.3 | 17.7 | 0.00 | 0.00 | 0.00 | 66 | 1020.3 |
| 20260506205341 | 20 | 247 | 11.3 | 19.3 | 0.00 | 0.00 | 0.00 | 67 | 1020.2 |
| 20260506204841 | 20 | 227 | 9.7 | 19.3 | 0.00 | 0.00 | 0.00 | 67 | 1020.3 |
| 20260506204340 | 20 | 250 | 9.7 | 19.3 | 0.00 | 0.00 | 0.00 | 71 | 1020.2 |
| 20260506203840 | 19 | 171 | 11.3 | 17.7 | 0.00 | 0.00 | 0.00 | 70 | 1020.2 |
| 20260506203341 | 19 | 219 | 12.9 | 17.7 | 0.00 | 0.00 | 0.00 | 68 | 1020.2 |
| 20260506202841 | 19 | 248 | 12.9 | 17.7 | 0.00 | 0.00 | 0.00 | 71 | 1020.4 |
| 20260506202341 | 19 | 223 | 12.9 | 19.3 | 0.00 | 0.00 | 0.00 | 70 | 1020.5 |
| 20260506201832 | 19 | 212 | 9.7 | 19.3 | 0.00 | 0.00 | 0.00 | 71 | 1020.6 |
| 20260506201334 | 18 | 227 | 8.0 | 12.9 | 0.00 | 0.00 | 0.00 | 72 | 1020.6 |
| 20260506200832 | 18 | 250 | 4.8 | 12.9 | 0.00 | 0.00 | 0.00 | 72 | 1020.7 |
| 20260506200323 | 17 | 203 | 4.8 | 12.9 | 0.00 | 0.00 | 0.00 | 73 | 1020.7 |
| 20260506195826 | 18 | 235 | 8.0 | 14.5 | 0.00 | 0.00 | 0.00 | 77 | 1020.9 |
| 20260506195325 | 17 | 215 | 9.7 | 17.7 | 0.00 | 0.00 | 0.00 | 74 | 1020.9 |
| 20260506194819 | 18 | 232 | 11.3 | 17.7 | 0.00 | 0.00 | 0.00 | 74 | 1020.8 |
| 20260506194319 | 17 | 226 | 8.0 | 16.1 | 0.00 | 0.00 | 0.00 | 76 | 1020.9 |
| 20260506193816 | 17 | 281 | 6.4 | 14.5 | 0.00 | 0.00 | 0.00 | 76 | 1020.9 |
| 20260506193307 | 17 | 280 | 4.8 | 12.9 | 0.00 | 0.00 | 0.00 | 75 | 1020.8 |
| 20260506192807 | 17 | 231 | 6.4 | 16.1 | 0.00 | 0.00 | 0.00 | 76 | 1020.8 |
| 20260506192307 | 17 | 204 | 8.0 | 16.1 | 0.00 | 0.00 | 0.00 | 77 | 1020.8 |
| 20260506191807 | 16 | 225 | 8.0 | 14.5 | 0.00 | 0.00 | 0.00 | 76 | 1020.9 |
| 20260506191532 | 17 | 230 | 4.8 | 14.5 | 0.00 | 0.00 | 0.00 | 78 | 1021.0 |
| 20260506191244 | 16 | 239 | 4.8 | 12.9 | 0.00 | 0.00 | 0.00 | 80 | 1021.1 |
| 20260506190307 | 16 | 177 | 4.8 | 11.3 | 0.00 | 0.00 | 0.00 | 79 | 1021.0 |